CZ-6A DEB, 54315

Orbit data source: Space-Track

CZ-6A DEB, 54315 is space debris in SSO originally from a launch on Fri, 11 Nov 2022 UTC launched from the Taiyaun Space Center, China (TSC). Debris objects in space refer to the collection of defunct objects orbiting the Earth. Examples of debris include non-operational satellites, rocket bodies, and fragments generated from explosions, collisions, or faulty payload assembly.

Loading next visibility...
Identifier
54315, 2022-151BJ
Orbit
SSO
Country
Flag of CNCN / PRC
Related business
Manufacturer
SAST
Mission
Spacecraft
Bus & Motor
Unknown
Mass
Unknown
Launch date (UTC)
2022-11-11 (4 years ago)
Launch vehicle
Unknown
Launch site
Taiyaun Space Center, China (TSC)
Object type
Payload
Rocket body
Debris
Shape & HBR
Unknown shape, 0.1 m
Radar Cross Section
Medium (>0.1 m² and <1 m²)

Expand to show TLE details & history
Last TLE update: 2 days ago

TLE from 2 days ago
0 CZ-6A DEB
1 54315U 22151BJ  26171.44982595  .00000188  00000-0  12821-3 0  9996
2 54315  98.8462 174.9051 0043186 336.9489  22.9743 14.10920499184973
Epoch: 2026-06-20T10:47Z
TLE epoch observation values (Epoch: 2026-06-20T10:47:44.962Z)
Latitude
-0.00006°
Longitude
104.30349°
Altitude
830.372 km
Speed
7.453 km/s
True Right ascension
11h 39m 37s
True Declination
0° 00' 00"
Sunlit
Object was in daylight at epoch
Visualization orbit readout
Latitude
Unknown
Longitude
Unknown
Altitude
Unknown
Speed
Unknown
Apparent Right ascension
Unknown
Apparent Declination
Unknown
Sunlit
N/A
Visualization observer readout
Local Sidereal Time
21:33:52
Azimuth
Unknown
Elevation
Unknown
Doppler factor
Unknown
Orbital elements
Apogee altitude
884.631 km
Perigee altitude
822.171 km
Semi-major axis
7,231.538 km
Eccentricity
0.00432
Inclination
98.8462°
RAAN
174.9051°
Arg. of periapsis
336.9489°
True anomaly
23.16842°
Mean anomaly
22.9743°
Eccentric anomaly
23.07126°
Mean motion
3.52937 °/min
Orbital period
102 mins
BSTAR
0.00012821
Loading maneuver chart data...
Computing Atmospheric mass density...
Loading historical data...
Loading historical data...
Loading historical data...
Loading historical data...
Loading historical data...
Loading historical data...
Loading historical data...

Documentation

Showing up to 5 results
|